| time (UTC) | temp F | wind direction | speed MPH | gust MPH | rain 1hr in | rain 24hr in | rain mn in | humidity % | barometer mb |
| 20260831134503 | 64 | 350 | 0.0 | 1.0 | 0.00 | 0.00 | 0.00 | 89 | 1011.3 |
| 20260831134036 | 64 | 350 | 0.0 | 0.0 | 0.00 | 0.00 | 0.00 | 88 | 1011.3 |
| 20260831133102 | 64 | 349 | 0.0 | 1.0 | 0.00 | 0.00 | 0.00 | 88 | 1011.2 |
| 20260831131823 | 65 | 349 | 0.0 | 0.0 | 0.00 | 0.00 | 0.00 | 87 | 1011.2 |
| 20260831131503 | 64 | 349 | 0.0 | 1.0 | 0.00 | 0.00 | 0.00 | 88 | 1011.2 |
| 20260831130803 | 64 | 349 | 0.0 | 0.0 | 0.00 | 0.00 | 0.00 | 87 | 1011.1 |
| 20260831130004 | 64 | 349 | 0.0 | 0.0 | 0.00 | 0.00 | 0.00 | 87 | 1011.2 |
| 20260831124605 | 64 | 350 | 0.0 | 0.0 | 0.00 | 0.00 | 0.00 | 86 | 1011.1 |
| 20260831123615 | 64 | 349 | 0.0 | 0.0 | 0.00 | 0.00 | 0.00 | 86 | 1011.0 |
| 20260831123002 | 63 | 33 | 0.0 | 1.0 | 0.00 | 0.00 | 0.00 | 86 | 1011.0 |
| 20260831122627 | 64 | 34 | 0.0 | 0.0 | 0.00 | 0.00 | 0.00 | 85 | 1011.0 |
| 20260831121555 | 64 | 34 | 0.0 | 0.0 | 0.00 | 0.00 | 0.00 | 85 | 1010.9 |
| 20260831120559 | 64 | 34 | 0.0 | 0.0 | 0.00 | 0.00 | 0.00 | 86 | 1010.9 |
| 20260831115535 | 64 | 34 | 0.0 | 0.0 | 0.00 | 0.00 | 0.00 | 85 | 1010.9 |
| 20260831114552 | 64 | 34 | 0.0 | 0.0 | 0.00 | 0.00 | 0.00 | 86 | 1011.0 |
| 20260831114503 | 64 | 34 | 0.0 | 1.0 | 0.00 | 0.00 | 0.00 | 86 | 1011.0 |
| 20260831113538 | 64 | 34 | 0.0 | 0.0 | 0.00 | 0.00 | 0.00 | 87 | 1011.0 |
| 20260831112603 | 64 | 35 | 0.0 | 0.0 | 0.00 | 0.00 | 0.00 | 87 | 1011.0 |
| 20260831111503 | 64 | 35 | 0.0 | 0.0 | 0.00 | 0.00 | 0.00 | 88 | 1010.9 |
| 20260831110438 | 64 | 34 | 0.0 | 0.0 | 0.00 | 0.00 | 0.00 | 89 | 1010.9 |
| 20260831110003 | 63 | 35 | 0.0 | 1.0 | 0.00 | 0.00 | 0.00 | 88 | 1011.0 |
| 20260831105456 | 64 | 35 | 0.0 | 0.0 | 0.00 | 0.00 | 0.00 | 88 | 1010.9 |
| 20260831104602 | 64 | 35 | 1.0 | 1.0 | 0.00 | 0.00 | 0.00 | 88 | 1011.0 |
| 20260831103302 | 65 | 35 | 0.0 | 0.0 | 0.00 | 0.00 | 0.00 | 89 | 1011.1 |
| 20260831103002 | 64 | 35 | 0.0 | 0.0 | 0.00 | 0.00 | 0.00 | 89 | 1011.1 |
| 20260831102238 | 64 | 35 | 0.0 | 0.0 | 0.00 | 0.00 | 0.00 | 89 | 1011.2 |
| 20260831101610 | 64 | 35 | 0.0 | 1.0 | 0.00 | 0.00 | 0.00 | 89 | 1011.1 |
| 20260831101244 | 64 | 34 | 0.0 | 0.0 | 0.00 | 0.00 | 0.00 | 89 | 1011.0 |
| 20260831100248 | 64 | 35 | 0.0 | 0.0 | 0.00 | 0.00 | 0.00 | 87 | 1011.1 |
| 20260831100108 | 64 | 35 | 0.0 | 0.0 | 0.00 | 0.00 | 0.00 | 87 | 1011.1 |
| 20260831095216 | 65 | 35 | 0.0 | 0.0 | 0.00 | 0.00 | 0.00 | 88 | 1011.1 |
| 20260831094503 | 64 | 35 | 0.0 | 1.0 | 0.00 | 0.00 | 0.00 | 87 | 1011.1 |
| 20260831094215 | 65 | 35 | 0.0 | 0.0 | 0.00 | 0.00 | 0.00 | 87 | 1011.0 |
| 20260831093224 | 65 | 35 | 0.0 | 2.0 | 0.00 | 0.00 | 0.00 | 87 | 1011.0 |
| 20260831093102 | 64 | 35 | 1.0 | 3.0 | 0.00 | 0.00 | 0.00 | 87 | 1011.0 |
| 20260831091503 | 65 | 27 | 0.0 | 1.0 | 0.00 | 0.00 | 0.00 | 86 | 1011.1 |
| 20260831091111 | 65 | 27 | 0.0 | 0.0 | 0.00 | 0.00 | 0.00 | 86 | 1011.0 |
| 20260831090120 | 66 | 62 | 0.0 | 0.0 | 0.00 | 0.00 | 0.00 | 84 | 1011.0 |
| 20260831090003 | 65 | 62 | 0.0 | 1.0 | 0.00 | 0.00 | 0.00 | 84 | 1011.0 |
| 20260831085103 | 66 | 63 | 0.0 | 0.0 | 0.00 | 0.00 | 0.00 | 84 | 1011.1 |
| 20260831084606 | 65 | 65 | 0.0 | 2.0 | 0.00 | 0.00 | 0.00 | 83 | 1011.1 |
| 20260831084038 | 66 | 33 | 0.0 | 1.0 | 0.00 | 0.00 | 0.00 | 83 | 1011.0 |
| 20260831083043 | 66 | 34 | 0.0 | 0.0 | 0.00 | 0.00 | 0.00 | 83 | 1011.0 |
| 20260831083003 | 66 | 34 | 0.0 | 2.0 | 0.00 | 0.00 | 0.00 | 84 | 1011.0 |
| 20260831082047 | 66 | 34 | 0.0 | 1.0 | 0.00 | 0.00 | 0.00 | 84 | 1010.9 |
| 20260831081634 | 66 | 34 | 0.0 | 1.0 | 0.00 | 0.00 | 0.00 | 84 | 1011.0 |
| 20260831081102 | 66 | 34 | 0.0 | 0.0 | 0.00 | 0.00 | 0.00 | 84 | 1011.0 |
| 20260831080125 | 66 | 46 | 0.0 | 1.0 | 0.00 | 0.00 | 0.00 | 84 | 1011.0 |
| 20260831075144 | 67 | 46 | 0.0 | 0.0 | 0.00 | 0.00 | 0.00 | 84 | 1011.1 |
| 20260831074511 | 66 | 46 | 0.0 | 4.0 | 0.00 | 0.00 | 0.00 | 85 | 1010.9 |
| 20260831074131 | 67 | 35 | 0.0 | 3.0 | 0.00 | 0.00 | 0.00 | 85 | 1010.8 |
| 20260831073200 | 65 | 43 | 0.0 | 2.0 | 0.00 | 0.00 | 0.00 | 86 | 1010.8 |
| 20260831073116 | 66 | 44 | 0.0 | 1.0 | 0.00 | 0.00 | 0.00 | 86 | 1010.7 |
| 20260831072129 | 66 | 50 | 0.0 | 0.0 | 0.00 | 0.00 | 0.00 | 84 | 1010.7 |
| 20260831071502 | 65 | 50 | 0.0 | 1.0 | 0.00 | 0.00 | 0.00 | 84 | 1010.7 |
| 20260831071150 | 66 | 50 | 0.0 | 0.0 | 0.00 | 0.00 | 0.00 | 85 | 1010.6 |
| 20260831070154 | 66 | 50 | 0.0 | 0.0 | 0.00 | 0.00 | 0.00 | 84 | 1010.9 |
| 20260831070002 | 66 | 50 | 0.0 | 1.0 | 0.00 | 0.00 | 0.00 | 84 | 1010.8 |
| 20260831065210 | 66 | 49 | 0.0 | 1.0 | 0.00 | 0.00 | 0.00 | 85 | 1010.8 |
| 20260831064609 | 65 | 74 | 0.0 | 1.0 | 0.00 | 0.00 | 0.00 | 84 | 1010.9 |
| 20260831063004 | 66 | 77 | 0.0 | 1.0 | 0.00 | 0.00 | 0.00 | 84 | 1010.9 |
| 20260831061602 | 66 | 77 | 0.0 | 0.0 | 0.00 | 0.00 | 0.00 | 84 | 1010.9 |
| 20260831060853 | 67 | 77 | 0.0 | 0.0 | 0.00 | 0.00 | 0.00 | 83 | 1010.8 |
| 20260831060114 | 66 | 77 | 0.0 | 0.0 | 0.00 | 0.00 | 0.00 | 83 | 1010.6 |
| 20260831054729 | 67 | 77 | 0.0 | 0.0 | 0.00 | 0.00 | 0.00 | 83 | 1010.6 |
| 20260831054502 | 67 | 77 | 0.0 | 1.0 | 0.00 | 0.00 | 0.00 | 83 | 1010.7 |
| 20260831053745 | 67 | 77 | 0.0 | 0.0 | 0.00 | 0.00 | 0.00 | 82 | 1010.9 |
| 20260831053102 | 67 | 94 | 0.0 | 1.0 | 0.00 | 0.00 | 0.00 | 82 | 1010.9 |
| 20260831052731 | 67 | 150 | 0.0 | 0.0 | 0.00 | 0.00 | 0.00 | 82 | 1010.9 |
| 20260831051502 | 67 | 150 | 0.0 | 0.0 | 0.00 | 0.00 | 0.00 | 81 | 1010.7 |
| 20260831050528 | 68 | 150 | 0.0 | 0.0 | 0.00 | 0.00 | 0.00 | 81 | 1010.6 |
| 20260831050004 | 67 | 150 | 0.0 | 0.0 | 0.00 | 0.00 | 0.00 | 81 | 1010.6 |
| 20260831045549 | 68 | 150 | 0.0 | 0.0 | 0.00 | 0.00 | 0.00 | 80 | 1010.5 |
| 20260831044604 | 68 | 150 | 0.0 | 0.0 | 0.00 | 0.00 | 0.00 | 79 | 1010.6 |
| 20260831044556 | 68 | 150 | 0.0 | 0.0 | 0.00 | 0.00 | 0.00 | 79 | 1010.6 |
| 20260831043002 | 68 | 154 | 0.0 | 2.0 | 0.00 | 0.00 | 0.00 | 80 | 1010.6 |
| 20260831042436 | 69 | 157 | 0.0 | 0.0 | 0.00 | 0.00 | 0.00 | 78 | 1010.4 |
| 20260831041608 | 68 | 157 | 0.0 | 0.0 | 0.00 | 0.00 | 0.00 | 79 | 1010.4 |
| 20260831041434 | 69 | 157 | 0.0 | 0.0 | 0.00 | 0.00 | 0.00 | 78 | 1010.3 |
| 20260831040417 | 69 | 157 | 0.0 | 0.0 | 0.00 | 0.00 | 0.00 | 77 | 1010.1 |
| 20260831040105 | 69 | 157 | 0.0 | 0.0 | 0.00 | 0.00 | 0.00 | 77 | 1010.2 |
| 20260831035431 | 69 | 157 | 0.0 | 0.0 | 0.00 | 0.00 | 0.00 | 76 | 1010.0 |
| 20260831034503 | 69 | 157 | 0.0 | 0.0 | 0.00 | 0.00 | 0.00 | 76 | 1009.9 |
| 20260831034455 | 70 | 157 | 0.0 | 0.0 | 0.00 | 0.00 | 0.00 | 76 | 1009.9 |
| 20260831033432 | 70 | 157 | 0.0 | 0.0 | 0.00 | 0.00 | 0.00 | 75 | 1009.7 |
| 20260831033103 | 70 | 157 | 0.0 | 0.0 | 0.00 | 0.00 | 0.00 | 75 | 1009.7 |
| 20260831032401 | 70 | 157 | 0.0 | 0.0 | 0.00 | 0.00 | 0.00 | 74 | 1009.6 |
| 20260831031503 | 70 | 157 | 0.0 | 0.0 | 0.00 | 0.00 | 0.00 | 74 | 1009.7 |
| 20260831031335 | 71 | 157 | 0.0 | 0.0 | 0.00 | 0.00 | 0.00 | 74 | 1009.6 |
| 20260831030348 | 71 | 157 | 0.0 | 0.0 | 0.00 | 0.00 | 0.00 | 73 | 1009.4 |
| 20260831030008 | 71 | 157 | 0.0 | 0.0 | 0.00 | 0.00 | 0.00 | 72 | 1009.4 |
| 20260831025355 | 72 | 157 | 0.0 | 0.0 | 0.00 | 0.00 | 0.00 | 72 | 1009.4 |
| 20260831024602 | 72 | 157 | 0.0 | 0.0 | 0.00 | 0.00 | 0.00 | 71 | 1009.3 |
| 20260831024348 | 73 | 157 | 0.0 | 0.0 | 0.00 | 0.00 | 0.00 | 71 | 1009.3 |
| 20260831023355 | 73 | 157 | 0.0 | 0.0 | 0.00 | 0.00 | 0.00 | 70 | 1009.3 |
| 20260831023002 | 73 | 217 | 0.0 | 2.0 | 0.00 | 0.00 | 0.00 | 70 | 1009.3 |
| 20260831022404 | 73 | 202 | 0.0 | 0.0 | 0.00 | 0.00 | 0.00 | 69 | 1009.3 |
| 20260831021331 | 74 | 161 | 0.0 | 0.0 | 0.00 | 0.00 | 0.00 | 69 | 1009.2 |
| 20260831020103 | 74 | 221 | 0.0 | 1.0 | 0.00 | 0.00 | 0.00 | 69 | 1009.3 |
| 20260831015214 | 75 | 204 | 0.0 | 1.0 | 0.00 | 0.00 | 0.00 | 68 | 1009.2 |
| 20260831014502 | 75 | 162 | 0.0 | 3.0 | 0.00 | 0.00 | 0.00 | 68 | 1009.1 |
| 20260831013102 | 75 | 166 | 0.0 | 3.0 | 0.00 | 0.00 | 0.00 | 70 | 1009.2 |
| 20260831011927 | 76 | 237 | 1.0 | 4.0 | 0.00 | 0.00 | 0.00 | 68 | 1009.2 |
| 20260831011504 | 76 | 138 | 1.0 | 5.0 | 0.00 | 0.00 | 0.00 | 67 | 1009.3 |
| 20260831010949 | 77 | 242 | 0.0 | 3.0 | 0.00 | 0.00 | 0.00 | 65 | 1009.1 |
| 20260831010005 | 77 | 213 | 1.0 | 6.0 | 0.00 | 0.00 | 0.00 | 65 | 1009.1 |
| 20260831005927 | 77 | 214 | 1.0 | 5.0 | 0.00 | 0.00 | 0.00 | 64 | 1009.1 |
| 20260831004929 | 78 | 205 | 0.0 | 4.0 | 0.00 | 0.00 | 0.00 | 62 | 1009.1 |
| 20260831004605 | 78 | 205 | 1.0 | 5.0 | 0.00 | 0.00 | 0.00 | 61 | 1009.3 |
| 20260831003918 | 78 | 249 | 1.0 | 6.0 | 0.00 | 0.00 | 0.00 | 61 | 1009.2 |
| 20260831003006 | 77 | 184 | 2.0 | 7.0 | 0.00 | 0.00 | 0.00 | 60 | 1009.1 |
| 20260831002924 | 78 | 127 | 1.0 | 6.0 | 0.00 | 0.00 | 0.00 | 59 | 1009.1 |
| 20260831001941 | 79 | 187 | 2.0 | 6.0 | 0.00 | 0.00 | 0.00 | 58 | 1009.0 |
| 20260831001602 | 78 | 139 | 4.0 | 7.0 | 0.00 | 0.00 | 0.00 | 61 | 1009.1 |
| 20260831000927 | 80 | 283 | 2.0 | 6.0 | 0.00 | 0.00 | 0.00 | 60 | 1009.2 |
| 20260831000105 | 80 | 185 | 2.0 | 5.0 | 0.00 | 0.00 | 0.00 | 59 | 1009.2 |
| 20260830235941 | 81 | 200 | 1.0 | 6.0 | 0.00 | 0.00 | 0.00 | 60 | 1009.2 |
| 20260830234916 | 81 | 241 | 2.0 | 7.0 | 0.00 | 0.00 | 0.00 | 58 | 1009.0 |
| 20260830234504 | 81 | 243 | 4.0 | 7.0 | 0.00 | 0.00 | 0.00 | 57 | 1009.1 |
| 20260830233107 | 83 | 199 | 4.0 | 8.0 | 0.00 | 0.00 | 0.00 | 55 | 1009.1 |
| 20260830232734 | 85 | 196 | 2.0 | 9.0 | 0.00 | 0.00 | 0.00 | 55 | 1009.1 |
| 20260830231716 | 85 | 236 | 3.0 | 9.0 | 0.00 | 0.00 | 0.00 | 53 | 1009.1 |
| 20260830231503 | 85 | 212 | 4.0 | 10.0 | 0.00 | 0.00 | 0.00 | 53 | 1009.1 |
| 20260830230718 | 85 | 250 | 3.0 | 8.0 | 0.00 | 0.00 | 0.00 | 54 | 1009.3 |
| 20260830230004 | 86 | 193 | 5.0 | 7.0 | 0.00 | 0.00 | 0.00 | 52 | 1009.4 |
| 20260830225734 | 86 | 266 | 3.0 | 8.0 | 0.00 | 0.00 | 0.00 | 52 | 1009.4 |
| 20260830224736 | 86 | 300 | 2.0 | 8.0 | 0.00 | 0.00 | 0.00 | 52 | 1009.3 |
| 20260830224607 | 86 | 236 | 4.0 | 9.0 | 0.00 | 0.00 | 0.00 | 51 | 1009.3 |
| 20260830223704 | 86 | 212 | 3.0 | 7.0 | 0.00 | 0.00 | 0.00 | 54 | 1009.4 |
| 20260830223003 | 86 | 230 | 3.0 | 8.0 | 0.00 | 0.00 | 0.00 | 54 | 1009.6 |
| 20260830222635 | 86 | 228 | 2.0 | 7.0 | 0.00 | 0.00 | 0.00 | 54 | 1009.6 |
| 20260830221657 | 85 | 139 | 2.0 | 9.0 | 0.00 | 0.00 | 0.00 | 56 | 1009.7 |
| 20260830221603 | 85 | 43 | 2.0 | 8.0 | 0.00 | 0.00 | 0.00 | 55 | 1009.8 |
| 20260830220716 | 86 | 238 | 3.0 | 9.0 | 0.00 | 0.00 | 0.00 | 56 | 1009.8 |
| 20260830220105 | 85 | 239 | 4.0 | 10.0 | 0.00 | 0.00 | 0.00 | 55 | 1010.0 |
| 20260830215702 | 86 | 188 | 2.0 | 9.0 | 0.00 | 0.00 | 0.00 | 56 | 1010.0 |
| 20260830214651 | 86 | 198 | 2.0 | 8.0 | 0.00 | 0.00 | 0.00 | 56 | 1010.1 |
| 20260830214501 | 85 | 116 | 3.0 | 8.0 | 0.00 | 0.00 | 0.00 | 55 | 1010.1 |
| 20260830213633 | 87 | 219 | 2.0 | 8.0 | 0.00 | 0.00 | 0.00 | 54 | 1010.2 |
| 20260830213104 | 86 | 200 | 2.0 | 9.0 | 0.00 | 0.00 | 0.00 | 55 | 1010.3 |
| 20260830212604 | 85 | 226 | 4.0 | 8.0 | 0.00 | 0.00 | 0.00 | 55 | 1010.3 |
| 20260830211505 | 86 | 167 | 5.0 | 9.0 | 0.00 | 0.00 | 0.00 | 54 | 1010.4 |
| 20260830210454 | 86 | 155 | 3.0 | 8.0 | 0.00 | 0.00 | 0.00 | 55 | 1010.4 |
| 20260830210005 | 86 | 233 | 4.0 | 8.0 | 0.00 | 0.00 | 0.00 | 54 | 1010.5 |
| 20260830204618 | 85 | 193 | 5.0 | 12.0 | 0.00 | 0.00 | 0.00 | 55 | 1010.6 |
| 20260830204338 | 85 | 185 | 4.0 | 11.0 | 0.00 | 0.00 | 0.00 | 55 | 1010.5 |
| 20260830203354 | 86 | 186 | 4.0 | 7.0 | 0.00 | 0.00 | 0.00 | 55 | 1010.7 |
| 20260830203003 | 85 | 276 | 3.0 | 8.0 | 0.00 | 0.00 | 0.00 | 55 | 1010.6 |
| 20260830202401 | 86 | 240 | 3.0 | 9.0 | 0.00 | 0.00 | 0.00 | 56 | 1010.5 |
| 20260830201630 | 84 | 180 | 5.0 | 0.0 | 0.00 | 0.00 | 0.00 | 58 | 1010.5 |
| 20260830201412 | 85 | 257 | 4.0 | 9.0 | 0.00 | 0.00 | 0.00 | 56 | 1010.5 |
| 20260830200340 | 86 | 160 | 4.0 | 9.0 | 0.00 | 0.00 | 0.00 | 56 | 1010.5 |
| 20260830200103 | 85 | 266 | 4.0 | 10.0 | 0.00 | 0.00 | 0.00 | 57 | 1010.6 |
| 20260830195330 | 86 | 248 | 3.0 | 9.0 | 0.00 | 0.00 | 0.00 | 57 | 1010.5 |
| 20260830194338 | 85 | 204 | 4.0 | 9.0 | 0.00 | 0.00 | 0.00 | 56 | 1010.6 |
| 20260830193103 | 87 | 198 | 4.0 | 9.0 | 0.00 | 0.00 | 0.00 | 54 | 1010.8 |
| 20260830192238 | 87 | 210 | 3.0 | 9.0 | 0.00 | 0.00 | 0.00 | 51 | 1010.8 |
| 20260830191510 | 86 | 218 | 3.0 | 10.0 | 0.00 | 0.00 | 0.00 | 51 | 1010.9 |
| 20260830190133 | 85 | 193 | 3.0 | 9.0 | 0.00 | 0.00 | 0.00 | 53 | 1010.9 |
| 20260830190003 | 85 | 217 | 1.0 | 10.0 | 0.00 | 0.00 | 0.00 | 54 | 1010.9 |
| 20260830185119 | 85 | 255 | 3.0 | 7.0 | 0.00 | 0.00 | 0.00 | 54 | 1010.9 |
| 20260830184611 | 85 | 221 | 4.0 | 8.0 | 0.00 | 0.00 | 0.00 | 53 | 1010.9 |
| 20260830183002 | 84 | 156 | 4.0 | 9.0 | 0.00 | 0.00 | 0.00 | 55 | 1011.1 |
| 20260830182930 | 84 | 240 | 2.0 | 8.0 | 0.00 | 0.00 | 0.00 | 56 | 1011.1 |
| 20260830181903 | 84 | 149 | 2.0 | 7.0 | 0.00 | 0.00 | 0.00 | 55 | 1011.2 |
| 20260830181602 | 84 | 105 | 2.0 | 7.0 | 0.00 | 0.00 | 0.00 | 56 | 1011.2 |
| 20260830180836 | 83 | 211 | 3.0 | 7.0 | 0.00 | 0.00 | 0.00 | 58 | 1011.1 |
| 20260830180105 | 83 | 211 | 3.0 | 7.0 | 0.00 | 0.00 | 0.00 | 58 | 1011.1 |
| 20260830175814 | 83 | 85 | 2.0 | 6.0 | 0.00 | 0.00 | 0.00 | 59 | 1011.1 |
| 20260830174503 | 83 | 206 | 3.0 | 6.0 | 0.00 | 0.00 | 0.00 | 60 | 1011.2 |
| 20260830173108 | 82 | 160 | 0.0 | 5.0 | 0.00 | 0.00 | 0.00 | 62 | 1011.2 |
| 20260830172451 | 82 | 140 | 0.0 | 4.0 | 0.00 | 0.00 | 0.00 | 63 | 1011.1 |
| 20260830171502 | 79 | 210 | 2.0 | 5.0 | 0.00 | 0.00 | 0.00 | 65 | 1011.1 |
| 20260830171453 | 80 | 210 | 1.0 | 4.0 | 0.00 | 0.00 | 0.00 | 65 | 1011.1 |
| 20260830170510 | 79 | 172 | 1.0 | 3.0 | 0.00 | 0.00 | 0.00 | 68 | 1011.0 |
| 20260830170003 | 78 | 102 | 1.0 | 5.0 | 0.00 | 0.00 | 0.00 | 68 | 1011.1 |
| 20260830165515 | 79 | 203 | 1.0 | 3.0 | 0.00 | 0.00 | 0.00 | 67 | 1011.0 |
| 20260830164603 | 79 | 240 | 1.0 | 6.0 | 0.00 | 0.00 | 0.00 | 68 | 1011.0 |
| 20260830164449 | 79 | 207 | 1.0 | 5.0 | 0.00 | 0.00 | 0.00 | 68 | 1011.0 |
| 20260830163005 | 78 | 160 | 2.0 | 5.0 | 0.00 | 0.00 | 0.00 | 69 | 1011.0 |
| 20260830162339 | 78 | 212 | 2.0 | 5.0 | 0.00 | 0.00 | 0.00 | 71 | 1011.0 |
| 20260830161611 | 77 | 212 | 3.0 | 6.0 | 0.00 | 0.00 | 0.00 | 72 | 1011.0 |
| 20260830161310 | 77 | 189 | 1.0 | 5.0 | 0.00 | 0.00 | 0.00 | 73 | 1011.0 |
| 20260830160332 | 76 | 216 | 1.0 | 4.0 | 0.00 | 0.00 | 0.00 | 75 | 1011.0 |
| 20260830160104 | 76 | 229 | 2.0 | 4.0 | 0.00 | 0.00 | 0.00 | 75 | 1011.0 |
| 20260830155336 | 76 | 185 | 0.0 | 2.0 | 0.00 | 0.00 | 0.00 | 76 | 1011.0 |
| 20260830154502 | 74 | 131 | 0.0 | 3.0 | 0.00 | 0.00 | 0.00 | 78 | 1011.0 |
| 20260830154310 | 75 | 155 | 0.0 | 4.0 | 0.00 | 0.00 | 0.00 | 79 | 1011.0 |
| 20260830153306 | 73 | 202 | 1.0 | 3.0 | 0.00 | 0.00 | 0.00 | 80 | 1011.1 |
| 20260830153003 | 73 | 193 | 1.0 | 3.0 | 0.00 | 0.00 | 0.00 | 82 | 1011.1 |
| 20260830151603 | 72 | 169 | 0.0 | 2.0 | 0.00 | 0.00 | 0.00 | 83 | 1011.2 |
| 20260830151049 | 72 | 51 | 0.0 | 3.0 | 0.00 | 0.00 | 0.00 | 83 | 1011.1 |
| 20260830150106 | 71 | 50 | 2.0 | 4.0 | 0.00 | 0.00 | 0.00 | 84 | 1011.4 |
| 20260830150027 | 72 | 56 | 0.0 | 3.0 | 0.00 | 0.00 | 0.00 | 84 | 1011.4 |
| 20260830145044 | 71 | 22 | 0.0 | 3.0 | 0.00 | 0.00 | 0.00 | 83 | 1011.2 |
| 20260830144510 | 70 | 40 | 1.0 | 3.0 | 0.00 | 0.00 | 0.00 | 84 | 1011.1 |
| 20260830144104 | 70 | 41 | 0.0 | 1.0 | 0.00 | 0.00 | 0.00 | 84 | 1011.1 |
| 20260830143113 | 70 | 23 | 0.0 | 0.0 | 0.00 | 0.00 | 0.00 | 83 | 1011.0 |
| 20260830143104 | 70 | 23 | 0.0 | 1.0 | 0.00 | 0.00 | 0.00 | 83 | 1011.0 |
| 20260830142044 | 70 | 23 | 0.0 | 0.0 | 0.00 | 0.00 | 0.00 | 83 | 1010.9 |
| 20260830141503 | 69 | 20 | 0.0 | 2.0 | 0.00 | 0.00 | 0.00 | 83 | 1010.9 |
| 20260830141016 | 70 | 20 | 0.0 | 3.0 | 0.00 | 0.00 | 0.00 | 82 | 1010.7 |
| 20260830140002 | 69 | 36 | 0.0 | 2.0 | 0.00 | 0.00 | 0.00 | 81 | 1010.8 |
| 20260830135951 | 69 | 36 | 0.0 | 0.0 | 0.00 | 0.00 | 0.00 | 81 | 1010.8 |
| 20260830134934 | 68 | 316 | 0.0 | 0.0 | 0.00 | 0.00 | 0.00 | 83 | 1010.7 |